Regional Weather Roundup
Issued by NWS

Home | Current Version | Previous Version | Text Only | Print | Product List | Glossary Off
Versions: 1 2 3 4 5 6 7 8 9 10 11 12 13 14 15 16 17 18 19 20 21 22 23 24 25 26 27 28 29 30 31 32 33 34 35 36 37 38 39 40 41 42 43 44 45 46 47 48 49 50

000
ASUS45 KTFX 240210
RWRMT
MONTANA REGIONAL WEATHER ROUNDUP
NATIONAL WEATHER SERVICE GREAT FALLS MT
800 PM MDT SAT MAY 23 2015

NOTE: "FAIR" INDICATES FEW OR NO CLOUDS BELOW 12000 FEET WITH NO
SIGNIFICANT WEATHER AND/OR OBSTRUCTIONS TO VISIBILITY.

MTZ001>007-043-240300-
WEST OF THE DIVIDE

CITY           SKY/WX    TMP DP  RH WIND       PRES   REMARKS
KALISPELL      PTCLDY    62  41  46 N6        30.04F
MISSOULA       CLOUDY    60  44  55 E12G23    30.05R
BUTTE          CLOUDY    52  40  63 N8        30.08R
MULLAN PASS    MOSUNNY   55  34  45 VRB6      30.11R
DEER LODGE       N/A     52  43  71 NW9       30.14S
EUREKA           N/A     75  28  17 N5        30.01S
HAMILTON         N/A     61  41  48 NW10      30.03R
LIBBY            N/A     73  36  25 E8        29.99R
RONAN            N/A     67  40  37 NE7       30.08R
THOMPSON FALLS   N/A     74  38  27 NE7       30.02R
$$

MTZ008-052>055-240300-
SOUTHWEST MONTANA

CITY           SKY/WX    TMP DP  RH WIND       PRES   REMARKS
BOZEMAN        LGT RAIN  51  48  89 N3        30.06S
DILLON         CLOUDY    54  42  64 N22G30    30.02R
W YELLOWSTONE  CLOUDY    41  41 100 W3        30.06R
THREE FORKS      N/A     54  54 100 CALM      30.06R
TWIN BRIDGES     N/A     55  40  57 N22       30.00S
$$

MTZ009-010-012-014-046-048-049-054-240300-
EAST SLOPES AND CENTRAL MONTANA

CITY           SKY/WX    TMP DP  RH WIND       PRES   REMARKS
CUT BANK       PTSUNNY   58  47  66 SW5       30.10S
GREAT FALLS    CLOUDY    53  48  83 W6        30.10S
MALMSTROM AFB  CLOUDY    55  48  75 W7        30.10S
HELENA         CLOUDY    55  46  71 NW7       30.08S
CONRAD           N/A     59  52  77 W5        30.12R
$$

MTZ011-013-016-021-045-047-050-051-240300-
NORTH CENTRAL MONTANA

CITY           SKY/WX    TMP DP  RH WIND       PRES   REMARKS
HAVRE          CLOUDY    68  40  35 E14       30.07S
LEWISTOWN      LGT RAIN  55  48  77 S5        30.09R
N BAR RANCH    CLOUDY    55  43  62 E15       30.11R
CHINOOK          N/A     68  39  34 E9        30.08R
FORT BENTON      N/A     61  50  67 SW8       30.09S
$$

MTZ017>020-022>027-061-062-240300-
NORTHEAST MONTANA

CITY           SKY/WX    TMP DP  RH WIND       PRES   REMARKS
GLASGOW        PTCLDY    67  41  38 SE12      30.07R
JORDAN           N/A     62  43  49 E14       30.07S
SIDNEY         CLOUDY    64  43  45 SE8       30.09S
WOLF POINT     MOCLDY    68  42  38 SE7       30.07S
MALTA            N/A     69  41  36 E6        30.04R
PLENTYWOOD       N/A     70  39  32 SE7       30.09R
POPLAR           N/A     68  43  40 SE7       30.08R
SCOBEY           N/A     66  36  33 E5        30.08S
$$

MTZ028>42-056>058-240300-
SOUTHCENTRAL AND SOUTHEAST MONTANA

CITY           SKY/WX    TMP DP  RH WIND       PRES   REMARKS
BAKER          CLOUDY    52  50  93 NE9       30.08S
BILLINGS       MOCLDY    59  46  62 NE13      30.04R
LIVINGSTON     CLOUDY    54  49  83 SE8       30.05R
MILES CITY     CLOUDY    53  50  89 NE9       30.07S
BIG TIMBER       N/A     54  46  76 N10       30.07S
EKALAKA          N/A     52  46  79 E7        30.05R
FORSYTH          N/A     54  54 100 NE8       30.06S
LAUREL           N/A     57  45  64 NE2       30.02R
ROUNDUP          N/A     59  41  51 NE7       29.97R
$$

REGIONAL REPORTS...DAKOTAS

CITY           SKY/WX    TMP DP  RH WIND       PRES   REMARKS
WILLISTON      CLOUDY    68  39  34 SE7       30.08S
MINOT          MOCLDY    67  43  41 S12       30.07R
DICKINSON      CLOUDY    56  46  69 E7        30.07S
BEACH          FAIR      54  54 100 CALM      30.10S
CROSBY         FAIR      66  37  34 SE5       30.08S
WATFORD CITY   FAIR      63  45  51 S7        30.07S
BISMARCK       CLOUDY    60  49  66 SE9       30.10S
GRAND FORKS    PTCLDY    65  46  50 S8        30.08S
FARGO          CLEAR     65  46  50 SE6       30.11R
BUFFALO SD       N/A     57  47  69 E9        30.01R
RAPID CITY     LGT RAIN  54  53  97 E13       30.02S FOG
$$

REGIONAL REPORTS...WYOMING/IDAHO/WASHINGTON

CITY           SKY/WX    TMP DP  RH WIND       PRES   REMARKS
GILLETTE       MOCLDY    54  47  77 NE13      30.01R
SHERIDAN       CLOUDY    53  46  77 CALM      30.03R
BUFFALO WY     CLOUDY    49  48  97 N9        30.04R
CODY           CLOUDY    52  45  76 W6        30.03S
YELLOWSTONE LA   N/A     44  36  73 VRB3      30.09R
IDAHO FALLS    CLOUDY    53  48  83 N7        29.98R
SALMON         CLOUDY    57  43  58 CALM      29.98R
BOISE          PTSUNNY   74  48  39 SE6       29.81S
SPOKANE        MOSUNNY   81  28  14 NE12      29.92S
$$

REGIONAL REPORTS...ALBERTA

CITY           SKY/WX    TMP DP  RH WIND       PRES   REMARKS
EDMONTON       SUNNY     73  34  23 E7        30.05S
CALGARY        MOSUNNY   68  27  21 SE8       30.11S
LETHBRIDGE     PTSUNNY   70  32  24 E12       30.08S
MEDICINE HAT   PTCLDY    72  32  23 SE10G17   30.07R
$$

REGIONAL REPORTS...SASKATCHEWAN

CITY           SKY/WX    TMP DP  RH WIND       PRES   REMARKS
SWIFT CURRENT  CLEAR     70  32  24 SE7       30.10S
REGINA         PTCLDY    70  39  32 S7        30.08R
SASKATOON      MOCLDY    75  30  19 SW6       30.07S
$$



USA.gov is the U.S. government's official web portal to all federal, state and local government web resources and services.